Regional Weather Roundup
Issued by NWS Raleigh/Durham, NC

Home | Current Version | Previous Version | Text Only | Print | Product List | Glossary On
Versions: 1 2 3 4 5 6 7 8 9 10 11 12 13 14 15 16 17 18 19 20 21 22 23 24 25 26 27 28 29 30 31 32 33 34 35 36 37 38 39 40 41 42 43 44 45 46 47 48 49 50
000
ASUS42 KRAH 210810
RWRRAH
NORTH CAROLINA WEATHER ROUNDUP
NATIONAL WEATHER SERVICE RALEIGH NC
300 AM EST SAT JAN 21 2017

NOTE: "FAIR" INDICATES FEW OR NO CLOUDS BELOW 12,000 FEET WITH NO
SIGNIFICANT WEATHER AND/OR OBSTRUCTIONS TO VISIBILITY.

NCZ001-053-055-056-065-067-210900-
WESTERN NORTH CAROLINA

CITY           SKY/WX    TMP DP  RH WIND       PRES   REMARKS
ASHEVILLE      PTCLDY    47  43  86 CALM      29.91R
JEFFERSON      MOCLDY    42  41  99 CALM      29.92R FOG
MORGANTON      FOG       52  52 100 CALM      29.95S VSB 3/4
HICKORY        FOG       52  52 100 CALM      29.91R VSB 1/2
RUTHERFORDTON  FOG       53  53 100 CALM      29.92S VSB 1/2
MOUNT AIRY     FOG       51  49  95 CALM      29.94R VSB 1/2
BOONE            N/A     36  36 100 CALM      29.93S FOG
$$

NCZ021-022-025-041-071-084-088-210900-
CENTRAL NORTH CAROLINA

CITY           SKY/WX    TMP DP  RH WIND       PRES   REMARKS
CHARLOTTE      FOG       54  53  97 E3        29.91S VSB 1/2
GREENSBORO     FOG       51  51 100 CALM      29.90F VSB 1/4
WINSTON-SALEM  FOG       51  49  92 CALM      29.92S VSB 3/4
RALEIGH-DURHAM FOG       52  51  97 E5        29.92R VSB 1/8
FORT BRAGG     FOG       52  52 100 CALM      29.90S VSB 1/2
FAYETTEVILLE   FOG       51  50  96 CALM      29.91S VSB 1/4
BURLINGTON     FOG       53  53 100 CALM      29.91S VSB 1/4
LAURINBURG     FOG       52  51  97 CALM      29.91S VSB 1/4
$$

NCZ011-015-027-028-043-044-047-080-103-210900-
NORTHEASTERN NORTH CAROLINA

CITY           SKY/WX    TMP DP  RH WIND       PRES   REMARKS
ROCKY MT-WILSO FOG       50  50 100 NE3       29.93S VSB 1/4
GREENVILLE     FOG       50  50 100 CALM      29.95S VSB 1/2
WASHINGTON     FOG       49  49  99 N3          N/A  VSB 1/2
ELIZABETH CITY CLOUDY    48  48 100 NW3       29.94R FOG
MANTEO         CLOUDY    47  47 100 N5        29.93S FOG
CAPE HATTERAS  FOG       50  48  93 N8        29.92R VSB 1/4
$$

NCZ078-087-090-091-093-098-101-210900-
SOUTHEASTERN NORTH CAROLINA

CITY           SKY/WX    TMP DP  RH WIND       PRES   REMARKS
LUMBERTON      FOG       51  51 100 CALM      29.90S VSB 1/4
GOLDSBORO      FOG       52  52 100 E3        29.91R VSB 1/2
KINSTON        FOG       52  52 100 CALM      29.94R VSB 1/2
KENANSVILLE    FOG       50  50 100 CALM      29.93R VSB 1/4
NEW BERN       FOG       50  49  96 N5        29.94R VSB 1/2
CHERRY POINT   FOG       50  49  96 N7        29.94R VSB 1
BEAUFORT       FOG       50  49  96 N6        29.93R VSB 1/2
JACKSONVILLE   FOG       52  52 100 NE3       29.93R VSB 1/4
WILMINGTON     FOG       51  51 100 CALM      29.92S VSB 1/4
$$




USA.gov is the U.S. government's official web portal to all federal, state and local government web resources and services.